Regional Weather Roundup
Issued by NWS

Home | Current Version | Previous Version | Graphics & Text | Print | Product List | Glossary On
Versions: 1 2 3 4 5 6 7 8 9 10 11 12 13 14 15 16 17 18 19 20 21 22 23 24 25 26 27 28 29 30 31 32 33 34 35 36 37 38 39 40 41 42 43 44 45 46 47 48 49 50
000
ASUS43 KLMK 301402
RWRKY
KENTUCKY REGIONAL WEATHER ROUNDUP
NATIONAL WEATHER SERVICE LOUISVILLE KY
900 AM EST FRI JAN 30 2015

NOTE "FAIR" INDICATES FEW OR NO CLOUDS BELOW 12,000 FEET
WITH NO SIGNIFICANT WEATHER AND/OR OBSTRUCTIONS TO VISIBILITY.

KYZ001>023-026-027-061>063-070>075-301500-
WESTERN AND SOUTH CENTRAL KENTUCKY

CITY           SKY/WX    TMP DP  RH WIND       PRES   REMARKS
PADUCAH        CLOUDY    34  23  64 N7        30.49S WCI  28
HENDERSON      SUNNY     34  19  55 NW10      30.49R WCI  26
OWENSBORO      SUNNY     33  24  70 NW9G20    30.48R WCI  25
HOPKINSVILLE   CLOUDY    34  24  67 N6        30.47R WCI  29
BOWLING GREEN  PTSUNNY   34  23  64 VRB7      30.46R WCI  28
GLASGOW        NOT AVBL
$$

KYZ024-025-028>034-038-045-046-053-301500-
NORTH CENTRAL KENTUCKY

CITY           SKY/WX    TMP DP  RH WIND       PRES   REMARKS
LOUISVILLE/SDF FLURRIES  35  25  66 NW9       30.41R WCI  28
LOUISVILLE/LOU CLOUDY    35  25  66 NW9       30.41R WCI  28
FORT KNOX      MOSUNNY   32  24  74 W10       30.40R WCI  23
$$

KYZ035>037-039>044-047>052-055>060-089>105-301500-
NORTHEAST KENTUCKY

CITY           SKY/WX    TMP DP  RH WIND       PRES   REMARKS
LEXINGTON      LGT SNOW  32  24  72 NW10      30.36R WCI  24
COVINGTON      PTSUNNY   28  13  53 N22G30    30.38R WCI  14
FRANKFORT      FLURRIES  33  23  66 NW12G18   30.37R WCI  24
$$

KYZ054-064>069-076>088-106>120-301500-
SOUTHEAST KENTUCKY

CITY           SKY/WX    TMP DP  RH WIND       PRES   REMARKS
JACKSON        CLOUDY    32  23  69 VRB6      30.29R WCI  26
LONDON         CLOUDY    33  22  63 NW12      30.34R WCI  24
SOMERSET       NOT AVBL
MIDDLESBORO    NOT AVBL
MONTICELLO     CLOUDY    34  28  79 NW7       30.41R WCI  28
$$



USA.gov is the U.S. government's official web portal to all federal, state and local government web resources and services.